STARLINK-33801, 63963

Orbit data source: Space-Track

STARLINK-33801, 63963 is a payload satellite owned by SpaceX/Seattle (US) in LEO that was launched on Tue, 13 May 2025 UTC via an FALCON 9 launch vehicle from the Air Force Eastern Test Range (AFETR). Payload-class satellites include a variety of spacecraft equipped with specific instruments for various scientific and technological missions. These include communications satellites like Starlink; space stations such as the ISS; scientific satellites like the Hubble; Earth observation satellites from companies like Planet Labs, Umbra, and HawkEye 360; GPS; miniature CubeSats for education and research; and military/defense satellites.

Loading next visibility...
Identifier
63963, 2025-099M
Orbit
LEO
Country
Flag of USUS
Related business
Manufacturer
SpaceX/Seattle
Mission
Operational Commercial Communications
Bus & Motor
STARLINK V2MO, Unknown motor
Mass
575 kg wet, ~530 kg dry
Launch date (UTC)
2025-05-13 (7 months ago)
Launch vehicle
FALCON 9
Launch site
Air Force Eastern Test Range (AFETR)
Object type
Payload
Rocket body
Debris
Shape & HBR
Box + 2 Pan, 17.7 m
Radar Cross Section
36.964 m², Large (>1 m²)

Expand to show TLE details & history
Last TLE update: 12 hours ago

TLE from 12 hours ago
0 STARLINK-33801
1 63963U 25099M   25346.89418503  .00039475  00000-0  14359-2 0  9992
2 63963  43.0024 306.2577 0001588 266.5561  93.5109 15.27588961 34067
Epoch: 2025-12-12T21:27Z
TLE epoch observation values (Epoch: 2025-12-12T21:27:37.586Z)
Latitude
-0.00003°
Longitude
-97.4782°
Altitude
482.865 km
Speed
7.626 km/s
True Right ascension
20h 25m 01s
True Declination
0° 00' 00"
Sunlit
Object was in daylight at epoch
Visualization orbit readout
Latitude
Unknown
Longitude
Unknown
Altitude
Unknown
Speed
Unknown
Apparent Right ascension
Unknown
Apparent Declination
Unknown
Sunlit
N/A
Visualization observer readout
Local Sidereal Time
07:26:32
Azimuth
Unknown
Elevation
Unknown
Doppler factor
Unknown
Orbital elements
Apogee altitude
486.057 km
Perigee altitude
483.877 km
Semi-major axis
6,863.104 km
Eccentricity
0.00016
Inclination
43.0024°
RAAN
306.2577°
Arg. of periapsis
266.5561°
True anomaly
93.52906°
Mean anomaly
93.5109°
Eccentric anomaly
93.51998°
Mean motion
3.81735 °/min
Orbital period
94.31 mins
BSTAR
0.0014359
Loading maneuver chart data...
Computing Atmospheric mass density...
Loading historical data...
Loading historical data...
Loading historical data...
Loading historical data...
Loading historical data...
Loading historical data...
Loading historical data...

Documentation

Showing up to 5 results
|